#timestamp,LO_Frequency,Hit,Temp,Hum 
1479733215.9,286047011.6,N,0.0,0.0
1479733235.7,286047012.4,N,0.0,0.0
1479733255.6,286047010.9,N,0.0,0.0
1479733275.4,286047009.6,N,0.0,0.0
1479733295.2,286047010.6,N,0.0,0.0
1479733315.1,286047007.7,N,0.0,0.0
1479733316.0,286047007.7,N,0.0,0.0
1479733335.8,286047009.8,N,0.0,0.0
1479733355.7,286047008.0,N,0.0,0.0
1479733375.5,286047009.0,N,0.0,0.0
1479733395.3,286047008.0,N,0.0,0.0
1479733415.2,286047009.6,N,0.0,0.0
1479733435.0,286047009.8,N,0.0,0.0
1479733435.9,286047009.8,N,0.0,0.0
1479733455.7,286047010.3,N,0.0,0.0
1479733475.6,286047009.9,N,0.0,0.0
1479733495.4,286047011.8,N,0.0,0.0
1479733515.3,286047010.4,N,0.0,0.0
1479733535.1,286047010.1,N,0.0,0.0
1479733536.0,286047010.1,N,0.0,0.0
1479733555.8,286047012.0,N,0.0,0.0
1479733575.7,286047009.6,N,0.0,0.0
1479733595.5,286047010.3,N,0.0,0.0
1479733615.3,286047010.4,N,0.0,0.0
1479733635.2,286047006.1,N,0.0,0.0
1479733655.0,286047006.5,N,0.0,0.0
1479733655.9,286047006.5,N,0.0,0.0
1479733675.8,286047007.0,N,0.0,0.0
1479733695.6,286047007.0,N,0.0,0.0
1479733715.4,286047006.9,N,0.0,0.0
1479733735.3,286047006.9,N,0.0,0.0
1479733755.1,286047005.3,N,0.0,0.0
1479733775.9,286047003.8,N,0.0,0.0
1479733795.7,286047004.4,N,0.0,0.0
1479733815.5,286047004.4,N,0.0,0.0
1479733835.4,286046999.8,N,0.0,0.0
1479733855.2,286047001.5,N,0.0,0.0
1479733875.0,286047004.2,N,0.0,0.0
1479733876.0,286047004.2,N,0.0,0.0
1479733895.8,286047004.0,N,0.0,0.0
1479733915.6,286047002.5,N,0.0,0.0
1479733935.5,286047004.3,N,0.0,0.0
1479733955.3,286047004.4,N,0.0,0.0
1479733975.1,286047002.3,N,0.0,0.0
1479733995.9,286047000.6,N,0.0,0.0
1479734015.7,286047000.6,N,0.0,0.0
1479734035.6,286046999.1,N,0.0,0.0
1479734055.4,286046999.0,N,0.0,0.0
1479734075.2,286046996.9,N,0.0,0.0
1479734095.1,286046995.2,N,0.0,0.0
1479734096.0,286046995.2,N,0.0,0.0
1479734115.8,286046996.1,N,0.0,0.0
1479734135.6,286046996.2,N,0.0,0.0
1479734155.5,286046994.0,N,0.0,0.0
1479734175.3,286046993.6,N,0.0,0.0
1479734195.2,286046994.5,N,0.0,0.0
1479734215.9,286046993.6,N,0.0,0.0
1479734235.7,286046991.7,N,0.0,0.0
1479734255.6,286046993.0,N,0.0,0.0
1479734275.4,286046990.8,N,0.0,0.0
1479734295.2,286046991.4,N,0.0,0.0
1479734315.1,286046988.8,N,0.0,0.0
1479734316.0,286046988.8,N,0.0,0.0
1479734335.8,286046989.1,N,0.0,0.0
1479734355.7,286046989.1,N,0.0,0.0
1479734375.5,286046988.8,N,0.0,0.0
1479734395.3,286046989.8,N,0.0,0.0
1479734415.2,286046987.1,N,0.0,0.0
1479734435.0,286046990.0,N,0.0,0.0
1479734435.9,286046990.0,N,0.0,0.0
1479734455.8,286046988.8,N,0.0,0.0
1479734475.6,286046987.6,N,0.0,0.0
1479734495.4,286046987.9,N,0.0,0.0
1479734515.3,286046988.0,N,0.0,0.0
1479734535.1,286046988.3,N,0.0,0.0
1479734555.9,286046985.9,N,0.0,0.0
1479734575.7,286046986.0,N,0.0,0.0
1479734595.5,286046983.8,N,0.0,0.0
1479734615.4,286046986.5,N,0.0,0.0
1479734635.2,286046986.5,N,0.0,0.0
1479734655.0,286046986.3,N,0.0,0.0
1479734655.9,286046986.3,N,0.0,0.0
1479734675.8,286046984.8,N,0.0,0.0
1479734695.6,286046984.7,N,0.0,0.0
1479734715.5,286046982.4,N,0.0,0.0
1479734735.3,286046982.5,N,0.0,0.0
1479734755.1,286046982.6,N,0.0,0.0
1479734775.9,286046982.1,N,0.0,0.0
1479734795.7,286046982.8,N,0.0,0.0
1479734815.6,286046983.4,N,0.0,0.0
1479734835.4,286046980.8,N,0.0,0.0
1479734855.2,286046981.2,N,0.0,0.0
1479734875.1,286046981.8,N,0.0,0.0
1479734876.0,286046981.8,N,0.0,0.0
1479734895.8,286046981.9,N,0.0,0.0
1479734915.6,286046981.6,N,0.0,0.0
1479734935.5,286046981.1,N,0.0,0.0
1479734955.3,286046981.6,N,0.0,0.0
1479734975.2,286046978.9,N,0.0,0.0
1479734995.9,286046979.1,N,0.0,0.0
1479735015.7,286046979.2,N,0.0,0.0
1479735035.6,286046979.1,N,0.0,0.0
1479735055.4,286046981.8,N,0.0,0.0
1479735075.2,286046982.0,N,0.0,0.0
1479735095.1,286046981.5,N,0.0,0.0
1479735096.0,286046981.5,N,0.0,0.0
1479735115.8,286046981.8,N,0.0,0.0
1479735135.7,286046980.6,N,0.0,0.0
1479735155.5,286046980.6,N,0.0,0.0
1479735175.3,286046983.4,N,0.0,0.0
1479735195.2,286046983.6,N,0.0,0.0
1479735215.0,286046983.6,N,0.0,0.0
1479735215.9,286046983.6,N,0.0,0.0
1479735235.8,286046980.5,N,0.0,0.0
1479735255.6,286046983.1,N,0.0,0.0
1479735275.4,286046981.7,N,0.0,0.0
1479735295.3,286046981.5,N,0.0,0.0
1479735315.1,286046981.0,N,0.0,0.0
1479735335.8,286046983.4,N,0.0,0.0
1479735355.7,286046983.6,N,0.0,0.0
1479735375.5,286046983.1,N,0.0,0.0
1479735395.4,286046983.1,N,0.0,0.0
1479735415.2,286046980.6,N,0.0,0.0
1479735435.0,286046981.4,N,0.0,0.0
1479735435.9,286046981.4,N,0.0,0.0
1479735455.8,286046978.9,N,0.0,0.0
1479735475.6,286046979.1,N,0.0,0.0
1479735495.5,286046979.1,N,0.0,0.0
1479735515.3,286046980.2,N,0.0,0.0
1479735535.1,286046979.7,N,0.0,0.0
1479735555.9,286046979.2,N,0.0,0.0
1479735575.7,286046981.9,N,0.0,0.0
1479735595.5,286046980.2,N,0.0,0.0
1479735615.4,286046980.1,N,0.0,0.0
1479735635.2,286046977.8,N,0.0,0.0
1479735655.1,286046977.3,N,0.0,0.0
1479735656.0,286046977.3,N,0.0,0.0
1479735675.8,286046977.7,N,0.0,0.0
1479735695.6,286046980.3,N,0.0,0.0
1479735715.5,286046977.3,N,0.0,0.0
1479735735.3,286046980.2,N,0.0,0.0
1479735755.1,286046977.5,N,0.0,0.0
1479735775.9,286046976.0,N,0.0,0.0
1479735795.7,286046975.9,N,0.0,0.0
1479735815.6,286046978.7,N,0.0,0.0
1479735835.4,286046976.3,N,0.0,0.0
1479735855.2,286046976.3,N,0.0,0.0
1479735875.1,286046976.7,N,0.0,0.0
1479735876.0,286046976.7,N,0.0,0.0
1479735895.8,286046976.9,N,0.0,0.0
1479735915.6,286046976.9,N,0.0,0.0
1479735935.5,286046975.9,N,0.0,0.0
1479735955.3,286046975.7,N,0.0,0.0
1479735975.2,286046978.2,N,0.0,0.0
1479735995.9,286046978.7,N,0.0,0.0
1479736015.7,286046975.7,N,0.0,0.0
1479736035.6,286046975.8,N,0.0,0.0
1479736055.4,286046978.5,N,0.0,0.0
1479736075.3,286046977.2,N,0.0,0.0
1479736095.1,286046974.6,N,0.0,0.0
1479736096.0,286046974.6,N,0.0,0.0
1479736115.8,286046974.7,N,0.0,0.0
1479736135.7,286046977.2,N,0.0,0.0
1479736155.5,286046974.6,N,0.0,0.0
1479736175.3,286046977.2,N,0.0,0.0
1479736195.2,286046976.7,N,0.0,0.0
1479736215.0,286046976.2,N,0.0,0.0
1479736215.9,286046976.2,N,0.0,0.0
1479736235.8,286046976.4,N,0.0,0.0
1479736255.6,286046976.4,N,0.0,0.0
1479736275.4,286046974.1,N,0.0,0.0
1479736295.3,286046976.8,N,0.0,0.0
1479736315.1,286046974.5,N,0.0,0.0
1479736335.9,286046974.7,N,0.0,0.0
1479736355.7,286046974.4,N,0.0,0.0
1479736375.5,286046974.5,N,0.0,0.0
1479736395.4,286046974.8,N,0.0,0.0
1479736415.2,286046974.7,N,0.0,0.0
1479736435.0,286046974.1,N,0.0,0.0
1479736435.9,286046974.1,N,0.0,0.0
1479736455.8,286046976.9,N,0.0,0.0
1479736475.6,286046977.2,N,0.0,0.0
1479736495.5,286046976.9,N,0.0,0.0
1479736515.3,286046974.2,N,0.0,0.0
1479736535.1,286046977.0,N,0.0,0.0
1479736555.9,286046974.6,N,0.0,0.0
1479736575.7,286046974.6,N,0.0,0.0
1479736595.5,286046974.5,N,0.0,0.0
1479736615.4,286046977.0,N,0.0,0.0
1479736635.2,286046974.5,N,0.0,0.0
1479736655.1,286046977.0,N,0.0,0.0
1479736656.0,286046977.0,N,0.0,0.0
1479736675.8,286046976.9,N,0.0,0.0
1479736695.6,286046976.5,N,0.0,0.0
1479736715.5,286046977.0,N,0.0,0.0
1479736735.3,286046976.4,N,0.0,0.0
1479736755.1,286046976.1,N,0.0,0.0
1479736775.9,286046978.5,N,0.0,0.0
1479736795.7,286046975.8,N,0.0,0.0
